Location: Br�znic
(45.9167°N, 22.6500°E)
Time: 20:48:13
(UTC+00:00)

Okean O Rocket - Pass Details

Date: 03 March 2021
Orbit: 623 x 643 km, 98.2° (Epoch: 12 April)

Event Time Altitude Azimuth Distance (km) Brightness Sun altitude
Rises 17:07:12 0° 199° (SSW) 2,894 5.3 -9.2°
Reaches altitude 10° 17:09:47 10° 215° (SW) 1,992 4.7 -9.7°
Maximum altitude 17:13:09 22° 266° (W) 1,374 4.5 -10.2°
Drops below altitude 10° 17:16:33 10° 318° (NW) 2,005 4.8 -10.8°
Sets 17:19:12 0° 334° (NNW) 2,918 5.4 -11.3°
